Location: Marse
(42.1502°N, 110.9866°W)
Time: 10:18:00
(UTC+00:00)

Oscar 19 - Pass Details

Date: 07 July 2022
Orbit: 773 x 790 km, 98.8° (Epoch: 13 August)

Event Time Altitude Azimuth Distance (km) Brightness Sun altitude
Rises 10:34:06 0° 19° (NNE) 3,259 15.2 -12.5°
Reaches altitude 10° 10:36:29 10° 24° (NNE) 2,327 14.4 -12.1°
Maximum altitude 10:41:28 50° 100° (E) 979 11.4 -11.5°
Drops below altitude 10° 10:46:25 10° 176° (S) 2,315 12.7 -10.9°
Enters shadow 10:48:05 - 180° (S) 2,963 13.2 -10.6°
